Wetbulb
71.12 70.11 69.58 67.30 66.01 65.26 64.65 64.36 64.73 65.25 65.28 65.41 65.59 65.95 66.17 66.28 65.94 64.93 64.66 64.51 63.95 61.41 60.82 61.46 61.86 62.30 61.96 61.98 61.83 62.32 63.09 64.40 62.91 64.43 65.75 63.63 62.23 64.00 65.74 67.43 67.45 68.29 70.52
70.01 68.99 66.84 65.61 65.00 63.93 63.72 64.16 64.02 62.41 63.17 63.93 65.08 65.86 65.53 65.08 64.55 63.84 63.58 63.28 60.71 58.92 58.74 58.61 58.53 59.95 59.07 60.33 60.19 59.50 59.74 60.44 62.52 62.42 64.95 64.15 61.87 63.30 63.33 64.53 66.86 69.33 70.69
68.12 66.63 65.79 65.38 65.01 64.03 63.79 63.63 63.37 63.18 63.64 64.83 65.61 64.69 64.29 64.38 64.02 63.12 61.79 59.48 58.65 58.39 57.71 57.13 57.56 58.15 57.78 58.70 59.69 59.16 59.00 59.24 60.66 63.01 63.94 65.88 67.71 66.92 64.11 64.38 65.57 67.76 70.07
66.61 65.80 65.12 65.36 64.98 63.31 62.67 62.37 63.31 65.32 65.19 64.49 64.48 64.55 63.87 63.61 63.54 62.18 59.34 58.68 57.88 57.57 57.57 57.69 58.07 58.26 57.73 57.77 58.28 58.15 58.40 58.84 60.28 62.04 63.61 64.50 65.66 66.95 64.33 63.11 64.59 65.80 66.48
65.80 64.75 64.38 64.96 64.20 62.82 61.64 61.41 62.31 64.31 64.94 64.68 63.50 62.60 63.08 62.53 61.86 58.78 59.05 57.19 56.92 56.91 57.43 58.08 59.01 59.50 60.97 60.37 59.10 57.58 58.16 58.68 61.25 61.46 62.15 63.20 64.22 65.49 65.86 67.74 67.11 66.88 66.77
65.19 64.13 64.54 63.88 62.81 63.11 62.75 63.11 62.74 63.56 64.37 63.01 62.99 62.89 61.08 62.82 59.86 60.60 60.25 57.65 57.01 56.82 57.39 58.58 58.24 59.24 59.56 60.07 60.42 60.97 59.93 58.41 58.47 61.85 61.80 61.68 63.03 65.14 67.56 66.81 65.82 64.06 64.56
64.58 64.62 64.14 62.85 63.46 62.59 62.89 62.33 63.08 63.65 63.30 61.55 62.12 61.76 61.14 60.23 59.55 58.70 59.61 57.59 56.27 57.39 58.46 57.83 58.22 58.97 58.30 57.86 59.21 59.70 60.17 60.47 60.62 60.54 60.88 62.57 63.57 65.59 66.98 64.53 65.55 64.65 64.84
65.04 64.46 63.48 63.55 62.50 62.03 62.29 63.91 63.12 63.38 62.52 61.71 61.57 61.40 60.04 60.68 58.85 56.74 57.70 56.59 56.82 58.76 58.80 58.88 58.02 58.96 57.55 57.49 58.29 58.43 59.35 61.69 61.76 62.24 62.20 63.93 65.93 66.71 66.39 65.86 65.07 65.30 65.38
64.75 63.55 64.11 64.00 61.48 61.96 63.01 62.22 62.77 62.19 62.50 61.49 61.68 60.64 58.85 58.06 57.18 55.16 55.08 55.66 57.21 58.24 59.01 59.61 58.65 56.90 57.16 57.68 57.28 57.52 60.40 63.18 63.72 60.97 62.11 62.93 63.18 63.05 63.78 65.69 64.17 62.49 62.44
64.07 63.90 64.31 63.09 62.43 62.81 62.64 62.24 62.50 63.10 62.25 62.31 61.01 60.70 57.90 56.47 55.28 54.57 54.23 54.96 56.73 57.67 58.35 59.51 58.51 56.00 53.49 56.15 58.88 62.38 61.77 62.24 64.14 64.67 62.67 62.65 62.97 62.52 62.21 66.03 64.88 62.90 63.06
63.74 63.87 64.10 62.27 62.91 64.08 62.79 63.15 62.41 62.40 62.47 61.23 60.12 59.28 56.92 55.83 56.07 53.96 52.84 53.46 55.57 57.86 57.82 58.46 58.90 54.88 51.31 52.67 56.31 61.42 60.58 62.99 63.16 64.46 64.85 64.62 64.90 63.89 64.59 64.85 65.53 64.43 62.51
64.15 63.25 62.60 62.38 64.49 63.71 63.28 63.32 62.50 61.97 61.82 60.05 59.26 56.03 56.39 55.97 55.06 54.09 51.73 50.92 53.42 58.20 58.20 58.84 59.02 53.56 50.27 52.04 56.09 54.16 56.49 61.32 63.06 62.74 62.76 62.99 63.93 64.09 64.82 65.62 65.33 65.15 65.30
63.58 63.34 63.29 64.13 63.80 63.63 62.01 62.29 61.64 60.96 59.91 59.51 56.38 54.73 55.26 55.70 55.70 52.75 50.86 50.80 52.93 57.42 58.12 57.38 55.39 53.30 53.75 55.44 53.78 54.51 56.65 59.57 59.71 59.13 58.67 59.25 60.52 61.42 63.13 64.51 65.85 61.60 59.98
62.15 61.07 59.77 59.70 60.46 62.48 62.74 62.57 61.32 61.50 58.62 56.51 55.02 54.01 53.86 54.06 52.48 49.71 49.00 49.99 52.15 56.89 57.34 57.99 57.31 56.56 55.81 56.88 55.73 55.36 57.94 58.33 57.32 56.64 57.70 59.13 60.00 59.80 59.65 60.67 60.59 59.52 57.69
60.43 58.71 58.58 59.16 59.31 60.32 60.46 59.30 60.03 55.86 56.88 55.47 55.00 53.06 50.56 48.24 48.56 44.42 43.67 46.35 46.78 52.17 55.20 55.92 55.16 56.61 56.85 57.91 58.62 57.18 55.42 55.26 55.14 55.94 55.22 55.64 56.77 56.55 56.40 57.71 57.15 56.47 55.06
57.49 57.18 58.04 57.85 57.75 58.55 60.18 53.59 49.49 48.49 48.42 45.87 46.04 51.57 50.28 47.38 43.33 42.48 42.42 43.15 43.26 46.36 53.26 53.26 52.97 53.28 53.64 55.34 56.50 57.08 57.85 57.13 56.58 54.98 54.60 55.98 55.92 55.68 55.66 56.04 55.38 54.24 53.23
57.45 57.17 56.77 55.50 56.81 57.17 57.61 52.91 52.44 52.65 47.70 45.77 45.68 43.79 42.55 43.57 42.65 42.40 43.29 43.87 44.07 47.96 49.32 49.44 49.33 49.58 50.50 52.89 53.16 52.85 53.34 55.34 55.10 54.14 53.29 55.94 57.04 56.78 55.96 55.56 55.35 54.65 53.64
56.97 55.92 57.51 58.67 60.01 58.31 57.65 55.44 54.55 52.88 52.37 50.50 46.96 46.39 44.52 42.70 43.38 41.55 44.32 46.50 49.03 49.43 49.23 48.53 48.21 48.92 48.97 48.53 49.21 49.86 48.99 48.94 50.28 51.97 52.82 52.62 52.79 53.41 54.36 54.47 54.62 54.65 55.79
58.74 59.67 59.67 59.18 57.82 57.38 58.66 59.01 57.83 55.52 57.21 56.87 56.18 49.12 46.97 43.35 43.52 42.38 43.69 49.08 47.98 47.76 48.78 49.19 49.38 48.80 48.32 47.69 47.31 47.32 46.63 45.87 46.04 46.53 47.37 48.67 50.39 50.02 49.66 51.07 51.66 51.00 52.76
58.06 58.42 58.79 59.10 58.32 57.30 58.10 57.64 58.54 57.64 57.47 57.27 56.62 53.73 53.47 49.21 49.97 49.39 49.06 48.76 48.78 49.04 49.00 48.65 49.29 49.17 47.06 45.74 44.44 44.17 44.40 44.00 43.00 43.56 44.29 45.62 47.54 47.47 47.56 47.98 48.63 49.00 48.10
58.18 57.84 57.81 58.82 58.09 56.58 57.38 54.47 54.71 56.46 56.27 53.13 52.12 51.46 45.95 48.47 48.24 48.35 47.89 48.48 48.02 48.15 48.85 48.39 47.89 46.28 44.76 42.27 41.78 40.47 40.54 41.19 40.73 40.26 41.39 43.03 44.85 45.29 46.18 46.07 46.45 47.16 46.23
55.65 58.90 57.96 56.59 57.45 56.40 55.53 56.26 55.56 56.12 56.77 54.09 50.87 47.45 45.47 47.30 47.41 47.35 47.41 47.93 47.60 47.56 48.29 48.42 46.56 44.81 42.02 39.95 38.67 37.61 36.78 36.44 38.25 37.95 38.10 40.35 41.79 43.99 44.84 44.88 44.29 43.67 42.63
56.08 55.94 57.48 56.48 55.34 54.62 55.95 56.83 56.62 56.54 55.98 54.88 52.36 47.68 47.11 46.69 46.23 45.80 46.40 46.63 47.38 47.23 47.12 48.23 45.89 42.58 41.41 39.94 37.87 36.18 34.65 33.86 35.15 36.60 35.53 37.89 39.85 42.15 42.75 42.09 41.95 41.18 41.11
57.29 56.95 56.27 56.61 56.34 56.16 56.21 56.04 54.95 51.70 52.47 49.80 47.89 47.09 46.57 46.37 46.20 45.51 45.50 45.95 45.29 46.01 46.27 45.27 43.47 41.43 39.97 38.58 37.17 35.02 32.77 32.18 33.77 33.47 34.07 36.44 38.40 41.39 42.00 41.39 40.93 40.82 41.57
55.07 55.20 56.25 56.65 56.12 55.12 54.56 54.94 53.93 49.40 48.48 47.15 46.76 46.78 46.31 45.84 44.61 44.91 44.31 44.02 43.78 44.18 44.21 44.68 42.78 40.89 39.13 37.22 34.88 33.07 31.77 30.35 31.73 32.79 33.15 34.71 37.84 40.32 39.61 38.90 38.78 38.73 38.86
53.59 54.53 54.67 54.19 53.03 52.81 52.48 50.62 48.73 48.06 46.26 46.61 46.40 45.31 45.31 43.72 43.02 43.36 42.52 42.27 42.07 42.59 42.45 42.96 42.40 40.62 38.74 36.58 34.18 32.68 31.57 30.70 31.83 31.51 32.22 36.74 39.90 39.04 37.96 37.58 37.94 37.13 36.70
MSLP
1012.52 1013.40 1014.24 1014.92 1015.34 1015.57 1015.79 1015.79 1015.83 1016.02 1016.11 1016.09 1015.91 1015.68 1015.58 1015.51 1015.43 1015.36 1015.24 1015.03 1014.85 1014.69 1014.43 1014.10 1013.57 1013.19 1012.70 1012.29 1011.91 1011.50 1011.25 1011.04 1010.16 1008.21 1008.51 1008.34 1008.66 1008.39 1008.33 1008.42 1008.92 1008.71 1010.60
1011.79 1012.78 1013.90 1014.83 1015.37 1015.70 1015.83 1015.80 1015.78 1015.85 1015.89 1015.85 1015.59 1015.45 1015.34 1015.23 1015.10 1015.02 1014.86 1014.62 1014.56 1014.30 1013.70 1013.20 1012.55 1011.97 1011.32 1010.88 1010.53 1010.18 1010.01 1009.81 1009.69 1007.97 1007.67 1007.63 1007.45 1007.57 1007.42 1007.65 1008.10 1008.58 1008.70
1011.55 1012.55 1013.47 1014.46 1015.19 1015.67 1015.73 1015.65 1015.56 1015.63 1015.65 1015.44 1015.33 1015.25 1015.12 1014.91 1014.76 1014.58 1014.55 1014.43 1014.17 1013.64 1012.98 1012.08 1011.01 1010.33 1009.43 1009.20 1008.81 1008.48 1008.62 1008.67 1008.36 1007.47 1006.29 1006.59 1005.87 1005.92 1006.19 1006.42 1006.89 1008.01 1007.78
1011.42 1012.35 1013.20 1013.97 1014.61 1015.20 1015.35 1015.33 1015.29 1015.35 1015.36 1015.27 1015.17 1015.20 1015.01 1014.77 1014.57 1014.47 1014.52 1014.21 1013.63 1012.71 1011.74 1010.74 1009.64 1008.61 1007.52 1007.28 1007.23 1007.00 1007.22 1007.24 1006.92 1006.35 1005.48 1005.53 1005.41 1005.10 1005.47 1005.67 1005.97 1005.92 1006.03
1011.37 1012.28 1012.97 1013.52 1014.07 1014.61 1014.98 1015.03 1014.99 1015.06 1014.98 1014.95 1015.01 1014.84 1014.57 1014.29 1014.17 1014.36 1014.27 1013.74 1012.79 1011.59 1010.53 1009.18 1007.95 1006.87 1006.11 1005.79 1005.83 1005.53 1005.77 1005.67 1005.14 1004.87 1004.49 1004.56 1004.61 1004.64 1004.72 1004.86 1005.16 1005.14 1005.06
1011.59 1012.41 1012.96 1013.42 1013.78 1014.25 1014.61 1014.89 1014.77 1014.74 1014.59 1014.69 1014.72 1014.63 1014.40 1014.18 1014.15 1014.07 1013.77 1013.16 1012.11 1010.89 1008.99 1007.47 1006.56 1005.28 1004.31 1004.11 1004.07 1004.05 1004.20 1004.23 1004.17 1003.78 1003.40 1003.30 1003.31 1003.75 1003.89 1004.09 1004.48 1004.98 1005.02
1011.54 1012.10 1012.73 1013.19 1013.53 1013.88 1014.19 1014.47 1014.49 1014.43 1014.37 1014.46 1014.39 1014.22 1014.18 1014.09 1014.09 1013.99 1013.43 1012.69 1011.59 1009.87 1008.13 1006.59 1005.03 1003.89 1003.35 1002.87 1002.49 1002.55 1002.56 1002.62 1002.83 1002.96 1002.49 1002.22 1002.37 1002.61 1002.92 1003.35 1003.52 1003.70 1003.73
1011.19 1011.91 1012.39 1012.82 1013.21 1013.52 1013.82 1014.18 1014.24 1014.21 1014.31 1014.37 1014.36 1014.09 1013.86 1013.91 1013.71 1013.65 1012.89 1012.05 1010.90 1009.21 1007.62 1005.79 1004.41 1002.89 1002.00 1001.83 1001.66 1001.49 1001.15 1000.64 1000.59 1001.05 1001.23 1001.27 1001.33 1001.56 1001.92 1002.08 1002.51 1002.67 1003.05
1010.77 1011.34 1011.99 1012.51 1012.97 1013.35 1013.71 1013.97 1014.11 1014.18 1014.09 1013.95 1013.73 1013.71 1013.81 1013.87 1013.54 1013.06 1012.54 1011.82 1010.41 1009.06 1006.91 1005.29 1004.03 1002.61 1001.34 1000.75 1000.97 1000.48 999.90 999.09 998.89 999.12 999.57 1000.09 1000.53 1000.90 1001.33 1001.67 1002.21 1002.41 1002.64
1010.51 1010.90 1011.41 1012.04 1012.60 1013.08 1013.52 1013.83 1013.69 1013.67 1013.65 1013.43 1013.25 1013.20 1013.42 1013.78 1013.37 1012.73 1012.62 1011.88 1010.72 1009.03 1006.72 1005.28 1003.92 1002.64 1000.99 999.87 1000.00 999.57 998.90 998.03 997.83 998.03 998.86 999.39 999.79 1000.42 1000.73 1000.73 1001.30 1001.90 1002.45
1010.47 1010.75 1011.24 1011.93 1012.55 1013.00 1013.45 1013.61 1013.79 1013.79 1013.87 1013.53 1013.29 1012.85 1013.22 1013.53 1012.87 1012.79 1012.43 1012.13 1011.05 1009.33 1007.68 1006.01 1004.48 1003.49 1002.22 1000.60 999.75 999.44 998.85 997.79 997.26 997.58 998.23 998.85 999.39 1000.06 1000.39 1000.53 1000.83 1001.20 1001.83
1010.15 1010.89 1011.44 1011.91 1012.43 1012.66 1013.17 1013.30 1013.30 1013.55 1013.55 1013.13 1013.36 1013.04 1013.13 1013.13 1012.73 1012.83 1012.46 1012.13 1011.03 1009.65 1008.61 1007.31 1005.97 1004.45 1003.12 1001.75 1000.82 1000.18 999.27 998.27 998.22 998.56 998.85 999.51 999.91 1000.25 1000.31 1000.33 1000.53 1000.93 1001.66
1009.77 1010.97 1011.63 1011.95 1012.51 1012.38 1012.63 1012.96 1012.91 1012.93 1013.27 1013.21 1013.38 1013.37 1013.32 1013.11 1012.86 1012.73 1012.60 1012.35 1011.21 1009.91 1009.21 1008.07 1006.76 1005.57 1004.42 1002.99 1002.25 1001.36 1000.76 1000.39 1000.17 999.92 1000.43 1000.37 1000.56 1001.14 1000.84 1001.05 1001.27 1001.95 1002.25
1011.03 1011.99 1012.15 1012.67 1012.88 1013.30 1012.94 1012.43 1012.67 1012.69 1012.82 1013.16 1013.43 1013.60 1013.39 1013.36 1013.37 1012.90 1012.84 1012.68 1011.53 1010.14 1009.42 1008.71 1007.50 1006.67 1005.74 1005.15 1004.07 1003.23 1002.84 1002.59 1002.37 1002.47 1002.38 1002.39 1002.23 1002.15 1002.20 1002.35 1002.44 1002.77 1002.93
1011.99 1011.62 1012.29 1012.47 1012.69 1012.02 1012.12 1012.83 1012.73 1012.72 1012.39 1012.47 1013.29 1013.61 1013.48 1013.80 1013.77 1013.22 1013.29 1013.27 1012.11 1010.86 1009.72 1008.97 1008.38 1007.61 1006.92 1006.08 1005.58 1005.29 1004.94 1004.49 1004.03 1004.01 1003.83 1003.82 1003.73 1003.65 1003.80 1003.85 1003.75 1003.78 1003.93
1011.79 1011.39 1011.37 1010.85 1011.16 1011.92 1012.21 1013.01 1012.88 1012.76 1012.85 1012.33 1013.11 1013.15 1013.34 1013.67 1013.55 1013.07 1012.97 1013.03 1012.05 1010.98 1010.11 1009.97 1009.68 1009.14 1008.43 1007.87 1007.21 1006.83 1006.40 1005.96 1005.74 1005.61 1005.41 1005.07 1005.07 1005.09 1005.04 1005.03 1004.94 1004.96 1004.91
1010.50 1010.54 1010.75 1011.06 1011.24 1011.63 1011.78 1012.45 1012.84 1013.41 1013.11 1012.48 1013.29 1013.53 1013.31 1013.65 1013.59 1013.20 1013.17 1013.08 1012.26 1011.41 1010.89 1010.88 1010.63 1010.17 1009.71 1009.09 1008.58 1008.13 1007.86 1007.41 1006.94 1006.69 1006.46 1006.29 1006.12 1006.00 1005.88 1005.74 1005.71 1005.69 1005.68
1010.45 1010.64 1010.76 1010.79 1010.75 1011.11 1011.11 1011.93 1012.55 1012.68 1012.78 1013.09 1013.05 1013.26 1013.35 1013.53 1013.76 1013.35 1013.45 1013.11 1012.59 1011.95 1011.67 1011.61 1011.47 1011.09 1010.85 1010.68 1010.19 1009.84 1009.42 1008.87 1008.27 1008.01 1007.67 1007.33 1007.11 1006.85 1006.53 1006.39 1006.29 1006.08 1005.94
1010.30 1010.29 1010.15 1010.20 1010.57 1010.57 1010.53 1011.01 1011.87 1012.62 1012.96 1012.63 1012.66 1012.63 1012.96 1013.36 1013.69 1013.50 1013.71 1013.43 1013.12 1012.77 1012.29 1012.07 1012.03 1011.99 1011.81 1011.59 1011.27 1011.19 1010.86 1010.53 1010.13 1009.62 1009.14 1008.64 1008.13 1007.76 1007.51 1007.21 1006.90 1006.56 1006.50
1009.89 1009.73 1009.87 1010.15 1010.45 1010.85 1010.71 1010.89 1010.97 1011.79 1012.26 1012.63 1012.64 1012.36 1012.51 1013.40 1013.81 1013.84 1013.77 1013.49 1013.19 1012.91 1012.65 1012.59 1012.60 1012.75 1012.81 1012.75 1012.59 1012.43 1012.11 1011.67 1011.41 1011.05 1010.55 1009.93 1009.36 1008.90 1008.59 1008.20 1007.83 1007.76 1007.71
1009.89 1009.90 1009.62 1009.66 1010.44 1010.69 1010.68 1010.93 1011.19 1011.90 1011.91 1012.29 1012.13 1012.19 1012.38 1012.81 1013.47 1013.72 1013.76 1013.64 1013.39 1013.10 1013.06 1013.19 1013.50 1013.54 1013.65 1013.74 1013.70 1013.57 1013.33 1013.12 1012.89 1012.48 1011.93 1011.22 1010.52 1009.99 1009.59 1009.15 1008.90 1008.73 1008.54
1009.91 1009.87 1009.97 1009.99 1010.17 1010.59 1010.99 1011.22 1011.39 1011.25 1012.09 1012.16 1012.31 1012.56 1012.49 1012.72 1013.42 1013.74 1013.79 1013.72 1013.43 1013.21 1013.33 1013.82 1014.13 1014.31 1014.62 1014.89 1014.78 1014.60 1014.39 1014.21 1013.87 1013.39 1012.87 1012.27 1011.48 1010.80 1010.29 1010.06 1009.80 1009.62 1009.41
1009.54 1009.41 1009.80 1010.12 1010.25 1010.48 1010.71 1010.90 1011.01 1011.23 1011.61 1011.86 1012.37 1012.98 1012.95 1013.19 1013.67 1013.89 1013.92 1013.86 1013.75 1013.71 1013.76 1014.19 1014.58 1015.07 1015.42 1015.45 1015.45 1015.55 1015.47 1015.19 1014.78 1014.45 1013.89 1013.20 1012.33 1011.63 1011.07 1010.75 1010.51 1010.21 1010.03
1009.35 1009.72 1010.06 1010.56 1010.72 1010.81 1010.73 1010.90 1011.44 1011.41 1011.27 1011.92 1012.60 1012.99 1013.15 1013.63 1013.99 1014.14 1014.18 1014.25 1014.13 1014.19 1014.28 1014.73 1015.19 1015.62 1015.93 1016.06 1016.15 1016.07 1015.99 1015.73 1015.30 1014.97 1014.44 1013.69 1012.99 1012.35 1011.80 1011.54 1011.29 1010.99 1010.85
1009.98 1010.18 1010.39 1010.70 1011.02 1011.23 1011.26 1011.33 1011.45 1011.67 1011.80 1012.24 1012.80 1013.24 1013.64 1014.06 1014.30 1014.43 1014.52 1014.59 1014.47 1014.49 1014.73 1015.18 1015.61 1015.91 1016.20 1016.31 1016.38 1016.32 1016.09 1015.81 1015.33 1014.77 1014.34 1013.81 1013.21 1012.74 1012.31 1012.09 1011.85 1011.55 1011.44
1010.20 1010.28 1010.42 1010.68 1010.89 1011.05 1011.29 1011.58 1011.95 1012.11 1012.62 1012.99 1013.34 1013.73 1014.13 1014.49 1014.67 1014.81 1014.91 1014.95 1014.92 1015.03 1015.21 1015.50 1015.87 1016.19 1016.34 1016.41 1016.49 1016.41 1016.13 1015.74 1015.25 1014.68 1014.35 1013.78 1013.36 1013.07 1012.74 1012.55 1012.33 1012.18 1012.00
Wind_Speed
10 8 7 5 4 3 3 1 0 2 3 4 5 5 6 5 5 5 6 7 7 6 6 9 12 12 11 11 10 11 10 10 14 15 8 5 7 9 11 14 13 6 8
11 9 8 6 3 2 2 1 1 3 5 6 6 5 5 5 5 6 7 6 5 8 12 14 16 12 17 16 13 16 13 13 13 21 13 8 11 12 11 9 7 9 7
12 10 9 7 5 4 4 4 4 5 7 7 3 4 6 6 6 7 5 6 6 11 15 18 19 20 20 15 16 15 13 13 15 16 15 9 12 8 6 5 7 10 9
12 10 8 8 7 6 5 4 4 5 4 3 4 5 5 6 7 5 6 9 15 17 18 20 22 24 26 21 18 16 14 14 15 16 13 10 10 8 5 4 4 4 6
11 8 7 7 7 5 3 3 4 4 3 2 2 5 6 4 3 5 9 13 17 20 21 22 21 25 32 26 14 14 14 14 12 12 12 10 11 9 8 7 8 6 7
10 6 6 7 6 4 3 6 5 5 2 1 4 5 6 3 6 9 13 15 17 19 20 21 20 26 22 25 28 30 23 15 15 10 10 11 13 10 9 8 5 4 4
9 8 7 7 6 5 6 5 5 4 2 2 5 5 5 4 6 10 17 13 16 18 20 20 18 13 18 15 19 24 27 29 29 18 15 12 11 10 9 7 8 6 5
9 8 7 7 6 6 6 5 3 2 3 4 5 5 3 3 7 12 16 13 14 20 20 19 19 18 14 14 12 13 16 18 18 17 19 16 8 7 8 7 8 5 3
10 8 7 7 7 6 5 4 3 3 4 5 4 4 1 5 9 11 13 12 16 19 19 19 17 17 23 17 12 13 15 13 13 22 23 20 16 11 8 4 4 3 1
9 8 7 7 7 5 5 5 4 4 5 4 5 3 4 4 7 14 11 8 15 13 19 19 25 26 29 13 10 8 10 11 8 8 13 13 11 8 11 6 5 4 3
6 7 7 6 5 4 4 3 4 5 5 5 5 0 1 4 6 12 17 9 10 10 13 16 16 35 28 17 7 4 5 7 1 4 6 6 6 6 5 4 5 4 4
7 7 7 6 3 3 6 6 6 5 6 6 5 1 1 4 8 8 17 17 19 11 12 12 15 29 21 23 16 19 17 13 10 10 10 8 7 5 4 2 3 1 5
9 7 6 6 2 5 5 6 5 3 4 5 2 2 3 4 5 9 13 18 17 10 11 14 20 21 23 21 25 23 20 11 10 11 9 8 8 6 8 5 9 12 11
11 10 8 7 8 11 7 5 4 5 4 3 3 2 3 4 5 5 6 8 12 8 12 11 13 12 14 12 16 16 13 13 12 11 9 8 8 8 10 6 6 4 6
8 7 5 4 8 13 8 5 3 2 2 5 4 3 4 4 4 5 4 7 6 7 6 9 12 11 13 7 8 11 11 11 11 10 11 10 10 10 9 7 7 6 8
9 6 6 9 8 6 5 2 8 7 5 14 8 5 2 1 8 8 9 12 13 10 7 8 9 10 12 11 11 10 11 12 7 7 7 7 8 7 6 6 6 6 6
8 9 6 4 6 7 5 7 7 2 1 11 5 4 6 3 8 10 11 11 11 9 8 7 8 10 10 10 9 9 9 7 7 7 8 8 6 4 5 5 4 4 4
5 6 5 5 4 2 7 5 3 5 5 3 3 4 4 3 5 9 8 7 6 8 5 6 7 8 9 10 11 11 11 11 11 10 8 8 7 6 6 5 5 3 3
5 4 4 3 4 4 6 8 6 4 1 2 2 2 6 7 6 6 10 3 3 3 4 6 5 7 8 8 9 9 10 9 10 10 10 9 8 6 5 5 6 9 7
3 8 5 2 5 2 5 6 7 5 4 3 4 3 2 5 2 2 1 2 3 4 4 5 7 7 8 8 8 8 9 10 10 10 10 10 9 8 8 8 7 5 6
3 2 1 5 6 4 4 4 5 3 4 4 3 3 6 6 5 3 2 2 2 4 4 6 7 7 8 8 8 8 8 8 9 9 8 8 9 8 8 7 8 7 6
3 4 4 3 5 5 4 5 6 6 3 2 2 2 7 5 5 4 4 4 3 5 4 8 7 7 7 7 8 8 8 8 8 9 8 8 8 8 7 7 7 6 5
1 5 6 4 4 6 4 3 4 4 2 5 4 2 4 5 5 5 5 4 4 5 5 7 7 7 6 6 6 6 7 7 6 7 8 8 8 8 6 4 5 5 6
4 5 6 4 0 2 3 4 2 3 4 7 6 4 6 5 5 6 5 4 4 5 6 7 7 8 6 5 4 4 4 5 4 6 8 6 7 8 6 6 7 9 8
5 5 4 4 1 2 2 4 3 4 7 6 6 5 6 6 5 5 5 5 4 6 6 6 7 9 8 7 6 6 6 6 6 10 5 6 7 7 7 5 6 6 7
5 5 4 3 1 2 2 5 4 6 6 5 6 6 7 6 5 5 5 6 5 6 7 8 8 9 7 6 5 5 7 8 9 12 6 5 5 4 4 5 7 3 5
Wind_Direction
138 147 145 153 165 167 180 195 280 348 319 303 290 290 286 290 298 296 281 271 265 281 280 278 277 273 269 265 259 260 261 262 263 270 257 232 212 222 228 220 205 229 259
150 137 135 137 141 145 224 269 302 281 285 279 283 294 305 306 299 289 273 290 297 294 294 292 284 280 273 265 260 257 253 259 262 265 254 240 224 220 230 229 215 199 217
133 134 135 147 163 217 236 240 249 264 267 276 312 343 314 303 298 287 306 303 288 298 294 286 278 276 270 265 258 255 250 257 253 253 255 241 249 231 224 208 202 196 201
138 141 145 160 179 204 229 238 266 278 299 338 342 320 314 308 295 326 334 328 314 298 290 280 278 277 272 270 261 258 256 247 247 248 246 239 239 231 216 214 209 208 195
138 143 156 162 167 192 218 249 279 285 299 359 350 307 296 295 323 15 339 318 306 302 292 285 284 283 275 264 261 250 243 248 246 236 242 234 232 234 221 208 219 228 218
132 156 170 157 162 178 216 256 262 274 244 352 306 286 300 304 5 352 329 318 306 302 302 301 296 292 275 268 262 251 242 244 250 249 232 232 234 220 223 209 197 174 220
142 161 160 159 166 195 222 240 260 242 178 270 281 291 295 315 350 330 325 314 310 305 313 309 303 290 282 268 256 250 247 243 240 244 247 233 230 217 210 209 215 187 196
152 148 161 165 182 201 208 233 247 213 224 262 283 292 275 335 326 311 325 319 318 317 322 316 313 304 272 258 258 257 253 243 231 228 230 235 221 216 200 207 191 203 164
156 156 169 168 187 199 218 218 233 236 245 251 259 274 68 323 302 310 346 332 329 324 335 328 327 331 317 256 249 254 256 248 230 215 219 223 223 226 217 169 204 124 198
168 170 169 174 179 199 208 215 226 232 240 254 289 304 146 293 301 352 347 331 333 333 342 340 348 348 342 286 246 266 272 253 231 200 215 223 205 200 206 178 165 152 152
166 171 154 153 172 204 231 248 253 254 281 295 296 164 162 261 7 353 345 335 323 335 346 342 357 356 340 354 357 9 348 343 265 174 187 191 198 178 191 198 190 154 162
172 134 135 151 170 200 245 243 238 244 264 280 302 74 263 349 22 348 343 331 319 1 351 342 345 343 351 20 28 23 19 32 45 55 58 52 59 58 51 94 156 182 44
124 119 106 79 310 249 246 247 263 256 261 267 154 41 337 350 6 350 340 323 315 10 356 345 338 344 358 18 21 34 36 39 47 56 52 49 49 38 41 33 40 90 67
81 67 57 41 353 311 282 271 251 264 211 151 106 64 23 6 347 354 346 321 321 353 357 354 360 344 349 12 23 32 34 40 47 45 43 45 49 49 54 39 71 69 65
110 138 127 154 238 245 261 306 256 309 212 152 118 126 79 12 312 340 287 309 320 310 5 17 12 13 6 10 26 32 29 30 40 42 43 41 44 47 41 27 49 53 63
155 175 202 215 235 245 245 127 52 66 48 88 105 134 109 142 332 3 358 328 338 355 35 25 18 11 20 13 20 23 33 29 30 29 27 38 46 40 49 41 43 43 52
183 198 226 234 244 240 211 168 139 42 10 84 63 123 110 243 336 22 21 340 351 12 42 28 29 18 10 7 17 23 19 11 30 30 35 30 19 23 34 39 32 38 36
236 251 242 236 243 278 181 130 101 152 152 168 205 210 207 248 317 360 6 1 5 18 31 36 32 32 27 22 24 23 22 16 16 15 17 30 33 25 28 26 17 4 22
200 238 252 200 129 126 97 123 117 132 129 160 194 139 219 230 275 334 312 57 9 351 9 30 27 36 35 31 27 22 22 19 14 14 12 12 9 14 7 13 12 22 30
164 156 121 166 86 355 107 120 115 145 165 180 220 202 135 116 201 188 1 48 25 13 20 30 40 55 41 31 27 20 18 18 11 8 4 5 3 13 12 5 13 27 27
137 131 145 119 111 109 101 113 132 156 137 181 168 166 150 121 130 126 101 54 36 45 41 60 65 53 46 34 27 24 20 14 8 2 359 354 356 5 0 3 15 20 27
200 144 159 121 121 117 136 167 163 137 188 221 169 133 119 97 96 90 67 41 33 60 68 87 79 70 58 45 34 24 15 4 355 355 350 342 346 353 359 10 20 18 14
33 95 88 84 119 140 141 125 122 152 206 174 142 127 109 99 92 83 63 31 38 69 64 81 85 80 67 61 49 33 12 353 337 345 337 333 337 340 344 6 14 8 5
65 97 114 125 106 161 163 124 64 290 128 110 127 117 100 97 90 76 58 36 49 73 83 83 86 90 83 69 50 38 11 350 326 331 321 323 328 337 14 20 16 9 7
80 76 89 103 132 294 179 113 29 82 81 89 89 86 86 89 83 72 56 37 45 74 73 99 97 88 79 77 58 30 353 338 339 338 331 318 324 0 20 8 4 359 17
109 129 137 112 284 262 129 84 105 92 84 75 85 82 92 84 73 70 64 39 48 66 81 91 96 98 85 60 43 10 1 351 350 341 329 309 348 23 15 6 349 12 27